Jamestown, NY

6:03 PM EDT on May 24, 2018 (GMT -0400)
Chautauqua County-Jamestown

Weather History for KJHW - October, 2013

Change the Weather History Date:

Tuesday, October 22, 2013

  Actual Average Record
Temperature  
Mean Temperature 40 °F -  
Max Temperature 46 °F 55 °F 77 °F (1979)
Min Temperature 35 °F 33 °F 22 °F (1974)
Degree Days  
Heating Degree Days 24    
Moisture  
Dew Point 33 °F    
Average Humidity 72    
Maximum Humidity 93    
Minimum Humidity 53    
Precipitation  
Precipitation 0.08 in - - ()
Sea Level Pressure  
Sea Level Pressure 29.83 in    
Wind  
Wind Speed 11 mph (WSW)    
Max Wind Speed 17 mph    
Max Gust Speed 26 mph    
Visibility 10 miles    
Events      
Averages and records for this station are not official NWS values.
T = Trace of Precipitation, MM = Missing Value Source: NWS Daily Summary

Daily Weather History Graph

Daily Weather History Graph

Search for Another Location

Airport or City:

Astronomy

Oct. 22, 2013 Rise Set
Actual Time 7:38 AM EDT 6:24 PM EDT
Civil Twilight 7:09 AM EDT 6:52 PM EDT
Nautical Twilight 6:36 AM EDT 7:25 PM EDT
Astronomical Twilight 6:04 AM EDT 7:57 PM EDT
Moon 9:00 PM EDT (10/22) 11:07 AM EDT (10/22)
Length of Visible Light 11h 43m
Length of Day
10h 46m
Waning Gibbous, 87% of the Moon is Illuminated
Oct 22
Waning Gibbous
Oct 26
Last Quarter
Nov 3
New
Nov 10
First Quarter
Nov 17
Full

Hourly Weather History & Observations

Time (EDT) Temp. Windchill Dew Point Humidity Pressure Visibility Wind Dir Wind Speed Gust Speed Precip Events Conditions
12:15 AM 46.4 °F 41.5 °F 42.8 °F 87% 29.82 in 5.0 mi SW 10.4 mph 20.7 mph 0.01 in   Mostly Cloudy
12:35 AM 46.4 °F 41.5 °F 42.8 °F 87% 29.82 in 10.0 mi SW 10.4 mph - 0.01 in   Mostly Cloudy
12:55 AM 46.4 °F 41.1 °F 42.8 °F 87% 29.81 in 10.0 mi SW 11.5 mph 17.3 mph 0.01 in   Overcast
1:15 AM 46.4 °F 41.5 °F 42.8 °F 87% 29.81 in 10.0 mi SW 10.4 mph 16.1 mph N/A   Overcast
1:35 AM 46.4 °F 41.1 °F 42.8 °F 87% 29.80 in 10.0 mi SW 11.5 mph 17.3 mph N/A   Mostly Cloudy
1:55 AM 46.4 °F 41.1 °F 42.8 °F 87% 29.80 in 10.0 mi SW 11.5 mph - N/A   Overcast
2:15 AM 46.4 °F 41.5 °F 42.8 °F 87% 29.79 in 10.0 mi SW 10.4 mph 16.1 mph N/A   Mostly Cloudy
2:35 AM 46.4 °F 41.9 °F 42.8 °F 87% 29.79 in 10.0 mi SW 9.2 mph - N/A   Overcast
2:55 AM 46.4 °F 42.4 °F 44.6 °F 93% 29.79 in 10.0 mi SSW 8.1 mph - N/A   Overcast
3:15 AM 46.4 °F 40.1 °F 44.6 °F 93% 29.79 in 9.0 mi NW 15.0 mph - 0.01 in   Overcast
3:35 AM 44.6 °F 38.8 °F 39.2 °F 81% 29.80 in 10.0 mi WNW 11.5 mph 21.9 mph 0.03 in   Overcast
3:55 AM 42.8 °F 36.2 °F 39.2 °F 87% 29.80 in 10.0 mi WNW 12.7 mph - 0.03 in   Overcast
4:15 AM 42.8 °F 35.4 °F 39.2 °F 87% 29.81 in 10.0 mi West 15.0 mph 21.9 mph N/A   Overcast
4:35 AM 42.8 °F 36.2 °F 37.4 °F 81% 29.81 in 10.0 mi West 12.7 mph - 0.01 in   Overcast
4:55 AM 42.8 °F 38.0 °F 37.4 °F 81% 29.80 in 10.0 mi West 8.1 mph - 0.01 in   Overcast
5:15 AM 42.8 °F 37.5 °F 37.4 °F 81% 29.81 in 10.0 mi West 9.2 mph - N/A   Overcast
5:35 AM 42.8 °F 38.6 °F 37.4 °F 81% 29.81 in 10.0 mi West 6.9 mph - N/A   Overcast
5:55 AM 42.8 °F 37.5 °F 37.4 °F 81% 29.81 in 10.0 mi WSW 9.2 mph - N/A   Overcast
6:15 AM 41.0 °F 37.1 °F 37.4 °F 87% 29.81 in 10.0 mi SW 5.8 mph - N/A   Mostly Cloudy
6:35 AM 41.0 °F 38.0 °F 37.4 °F 87% 29.81 in 10.0 mi SW 4.6 mph - N/A   Overcast
6:55 AM 42.8 °F 37.0 °F 37.4 °F 81% 29.82 in 10.0 mi SW 10.4 mph 16.1 mph N/A   Overcast
7:15 AM 41.0 °F 35.8 °F 37.4 °F 87% 29.82 in 10.0 mi WSW 8.1 mph - N/A   Overcast
7:35 AM 41.0 °F 35.2 °F 37.4 °F 87% 29.82 in 10.0 mi SW 9.2 mph - N/A   Overcast
7:55 AM 41.0 °F 34.7 °F 37.4 °F 87% 29.82 in 6.0 mi WSW 10.4 mph - N/A   Overcast
8:15 AM 41.0 °F 34.7 °F 37.4 °F 87% 29.83 in 7.0 mi SW 10.4 mph - N/A   Overcast
8:35 AM 37.4 °F 28.9 °F 33.8 °F 87% 29.85 in 3.0 mi WNW 13.8 mph 20.7 mph 0.02 in   Overcast
8:55 AM 37.4 °F 29.8 °F 33.8 °F 87% 29.86 in 5.0 mi NW 11.5 mph 19.6 mph 0.03 in   Overcast
9:15 AM 35.6 °F 28.6 °F 32.0 °F 87% 29.86 in 10.0 mi WNW 9.2 mph - N/A   Overcast
9:35 AM 37.4 °F 32.1 °F 32.0 °F 81% 29.86 in 10.0 mi NW 6.9 mph - N/A   Overcast
9:55 AM 37.4 °F 31.4 °F 30.2 °F 75% 29.87 in 10.0 mi WNW 8.1 mph - N/A   Mostly Cloudy
10:15 AM 39.2 °F 33.6 °F 33.8 °F 81% 29.87 in 10.0 mi WNW 8.1 mph - N/A   Mostly Cloudy
10:35 AM 39.2 °F 32.5 °F 32.0 °F 75% 29.86 in 10.0 mi West 10.4 mph - N/A   Overcast
10:55 AM 41.0 °F 34.7 °F 32.0 °F 70% 29.86 in 10.0 mi WSW 10.4 mph 19.6 mph N/A   Mostly Cloudy
11:15 AM 41.0 °F 34.3 °F 30.2 °F 65% 29.87 in 10.0 mi West 11.5 mph 19.6 mph N/A   Overcast
11:35 AM 41.0 °F 33.5 °F 30.2 °F 65% 29.86 in 10.0 mi West 13.8 mph - N/A   Overcast
11:55 AM 41.0 °F 33.9 °F 30.2 °F 65% 29.87 in 10.0 mi West 12.7 mph 18.4 mph N/A   Mostly Cloudy
12:15 PM 41.0 °F 33.5 °F 33.8 °F 76% 29.87 in 10.0 mi West 13.8 mph 18.4 mph N/A   Mostly Cloudy
12:35 PM 42.8 °F 36.6 °F 30.2 °F 61% 29.87 in 10.0 mi WSW 11.5 mph - N/A   Overcast
12:55 PM 42.8 °F 35.8 °F 28.4 °F 57% 29.86 in 10.0 mi WSW 13.8 mph 20.7 mph N/A   Overcast
1:15 PM 42.8 °F 35.4 °F 28.4 °F 57% 29.85 in 10.0 mi WSW 15.0 mph 21.9 mph N/A   Mostly Cloudy
1:35 PM 42.8 °F 34.8 °F 30.2 °F 61% 29.84 in 10.0 mi West 17.3 mph 23.0 mph N/A   Mostly Cloudy
1:55 PM 42.8 °F 35.4 °F 28.4 °F 57% 29.84 in 10.0 mi West 15.0 mph 26.5 mph N/A   Mostly Cloudy
2:15 PM 42.8 °F 35.4 °F 30.2 °F 61% 29.84 in 10.0 mi WSW 15.0 mph 19.6 mph N/A   Mostly Cloudy
2:35 PM 44.6 °F 37.4 °F 30.2 °F 57% 29.83 in 10.0 mi WSW 16.1 mph 25.3 mph N/A   Mostly Cloudy
2:55 PM 44.6 °F 37.4 °F 28.4 °F 53% 29.83 in 10.0 mi WSW 16.1 mph - N/A   Overcast
3:15 PM 42.8 °F 35.4 °F 30.2 °F 61% 29.83 in 10.0 mi WSW 15.0 mph 20.7 mph N/A   Overcast
3:35 PM 44.6 °F 37.8 °F 30.2 °F 57% 29.83 in 10.0 mi WSW 15.0 mph 21.9 mph N/A   Scattered Clouds
3:55 PM 42.8 °F 35.8 °F 30.2 °F 61% 29.83 in 10.0 mi West 13.8 mph 18.4 mph N/A   Mostly Cloudy
4:15 PM 42.8 °F 36.2 °F 30.2 °F 61% 29.83 in 10.0 mi WSW 12.7 mph 19.6 mph N/A   Overcast
4:35 PM 42.8 °F 35.8 °F 30.2 °F 61% 29.83 in 10.0 mi West 13.8 mph - N/A   Overcast
4:55 PM 44.6 °F 37.8 °F 30.2 °F 57% 29.83 in 10.0 mi WSW 15.0 mph 20.7 mph N/A   Overcast
5:15 PM 42.8 °F 35.8 °F 28.4 °F 57% 29.83 in 10.0 mi WSW 13.8 mph - N/A   Overcast
5:35 PM 44.6 °F 37.8 °F 28.4 °F 53% 29.84 in 10.0 mi WSW 15.0 mph 21.9 mph N/A   Mostly Cloudy
5:55 PM 42.8 °F 35.4 °F 26.6 °F 53% 29.84 in 10.0 mi West 15.0 mph - N/A   Mostly Cloudy
6:15 PM 42.8 °F 35.1 °F 26.6 °F 53% 29.84 in 10.0 mi WSW 16.1 mph 19.6 mph N/A   Mostly Cloudy
6:35 PM 39.2 °F 32.0 °F 28.4 °F 65% 29.85 in 10.0 mi WSW 11.5 mph - N/A   Mostly Cloudy
6:55 PM 39.2 °F 33.0 °F 26.6 °F 61% 29.84 in 10.0 mi WSW 9.2 mph - N/A   Mostly Cloudy
7:15 PM 39.2 °F 33.0 °F 26.6 °F 61% 29.84 in 10.0 mi WSW 9.2 mph - N/A   Scattered Clouds
7:35 PM 39.2 °F 33.0 °F 28.4 °F 65% 29.84 in 10.0 mi WSW 9.2 mph - N/A   Mostly Cloudy
7:55 PM 39.2 °F 34.2 °F 26.6 °F 61% 29.84 in 10.0 mi SW 6.9 mph - N/A   Overcast
8:15 PM 39.2 °F 34.2 °F 26.6 °F 61% 29.84 in 10.0 mi SW 6.9 mph - N/A   Overcast
8:35 PM 39.2 °F 34.2 °F 26.6 °F 61% 29.84 in 10.0 mi SW 6.9 mph - N/A   Overcast
8:55 PM 39.2 °F 35.0 °F 26.6 °F 61% 29.84 in 10.0 mi SW 5.8 mph - N/A   Overcast
9:15 PM 39.2 °F 34.2 °F 26.6 °F 61% 29.84 in 10.0 mi SW 6.9 mph - N/A   Overcast
9:35 PM 39.2 °F 35.0 °F 26.6 °F 61% 29.85 in 10.0 mi SW 5.8 mph - N/A   Overcast
9:55 PM 39.2 °F 35.0 °F 28.4 °F 65% 29.85 in 10.0 mi SW 5.8 mph - N/A   Overcast
10:15 PM 39.2 °F 35.0 °F 28.4 °F 65% 29.84 in 10.0 mi SSW 5.8 mph - N/A   Overcast
10:35 PM 37.4 °F 32.1 °F 28.4 °F 70% 29.84 in 10.0 mi SW 6.9 mph - N/A   Overcast
10:55 PM 37.4 °F 32.8 °F 30.2 °F 75% 29.84 in 10.0 mi WSW 5.8 mph - N/A   Overcast
11:15 PM 37.4 °F 30.3 °F 30.2 °F 75% 29.84 in 10.0 mi West 10.4 mph - N/A   Overcast
11:35 PM 37.4 °F 30.3 °F 30.2 °F 75% 29.83 in 9.0 mi WSW 10.4 mph - N/A   Mostly Cloudy
11:55 PM 37.4 °F 29.8 °F 30.2 °F 75% 29.83 in 10.0 mi WSW 11.5 mph - N/A   Overcast